Weather reports worldwide

Advertisment
Helgoland, Germany (10015): temperature & dewpoint: 25.09.2020 00:00:00 - 01.10.2020 00:00:00 (CEST)Helgoland, Germany (10015): temperature 5cm: 25.09.2020 00:00:00 - 01.10.2020 00:00:00 (CEST)Helgoland, Germany (10015): wind speed & gusts: 25.09.2020 00:00:00 - 01.10.2020 00:00:00 (CEST)Helgoland, Germany (10015): wind direction: 25.09.2020 00:00:00 - 01.10.2020 00:00:00 (CEST)Helgoland, Germany (10015): reduced air pressure: 25.09.2020 00:00:00 - 01.10.2020 00:00:00 (CEST)Helgoland, Germany (10015): visibility: 25.09.2020 00:00:00 - 01.10.2020 00:00:00 (CEST)Helgoland, Germany (10015): sunshine duration: 25.09.2020 00:00:00 - 01.10.2020 00:00:00 (CEST)Helgoland, Germany (10015): precipitation: 25.09.2020 00:00:00 - 01.10.2020 00:00:00 (CEST)
Date & Time tt [°C] td [°C] tt 5cm [°C] ff [km/h] ff [kn] fx [km/h] fx [kn] dd ppp [hPa] vv [km] sd [min] rr [mm]
01.10.2020 00:00:00 - - - - - - - - - - - -
30.09.2020 23:00:00 16,7 14,6 15,4 22 12 33 18 SE 1011,3 9 0 0,0
30.09.2020 22:00:00 17,0 14,6 16,3 24 13 31 17 SE 1011,4 11 0 0,0
30.09.2020 21:00:00 16,6 15,0 15,4 22 12 29 16 SE 1011,9 8 0 0,0
30.09.2020 20:00:00 16,7 14,2 15,6 18 10 23 12 SE 1012,0 13 0 0,0
30.09.2020 19:00:00 16,6 14,2 16,0 14 8 24 13 SSE 1012,5 10 0 0,0
30.09.2020 18:00:00 16,2 13,9 16,2 17 9 24 13 SSE 1012,4 9 0 0,0
30.09.2020 17:00:00 16,3 13,7 17,1 13 7 22 12 SSE 1012,8 12 9 0,0
30.09.2020 16:00:00 15,9 13,7 16,9 14 8 22 12 S 1013,2 10 2 0,0
30.09.2020 15:00:00 15,7 13,1 18,4 14 8 26 14 S 1013,5 12 27 0,0
30.09.2020 14:00:00 15,1 12,4 17,6 17 9 29 16 SSW 1014,1 13 23 0,0
30.09.2020 13:00:00 15,1 12,7 17,2 22 12 35 19 SSW 1014,4 11 15 0,0
30.09.2020 12:00:00 14,5 13,4 14,7 24 13 35 19 SSW 1014,6 4,9 0 0,0
30.09.2020 11:00:00 14,5 13,5 14,8 18 10 27 15 S 1014,5 4,8 1 0,0
30.09.2020 10:00:00 14,7 12,9 14,5 20 11 29 15 S 1014,5 9 2 0,0
30.09.2020 09:00:00 14,8 13,7 14,3 16 9 24 13 S 1014,5 6 4 0,1
30.09.2020 08:00:00 14,4 13,9 14,3 16 9 24 13 SSE 1014,4 4,6 0 0,0
30.09.2020 07:00:00 14,3 13,4 13,8 17 9 25 13 SSE 1014,6 10 0 0,0
30.09.2020 06:00:00 15,1 13,3 14,4 14 7 21 11 SSE 1014,7 26 0 0,0
30.09.2020 05:00:00 15,1 12,2 13,6 14 8 21 12 S 1015,1 44 0 0,0
30.09.2020 04:00:00 15,4 12,7 14,4 6 3 15 8 S 1015,0 42 0 0,0
30.09.2020 03:00:00 15,5 11,7 14,6 11 6 17 9 WSW 1015,6 48 0 0,0
30.09.2020 02:00:00 15,4 11,4 14,8 11 6 21 11 WSW 1015,6 54 0 0,0
30.09.2020 01:00:00 15,5 11,7 14,6 8 4 18 10 W 1015,8 43 0 0,0
30.09.2020 00:00:00 15,4 11,2 14,8 10 5 21 11 W 1016,0 45 0 0,0
29.09.2020 23:00:00 15,4 11,6 14,7 12 6 23 13 WNW 1016,0 44 0 0,0
29.09.2020 22:00:00 15,3 11,6 14,3 18 10 27 15 WNW 1015,7 45 0 0,0
29.09.2020 21:00:00 15,7 12,9 15,0 20 11 28 15 WNW 1015,3 44 0 0,0
29.09.2020 20:00:00 15,7 14,0 14,8 22 12 28 15 WNW 1014,8 30 0 0,3
29.09.2020 19:00:00 14,2 13,8 14,0 16 9 23 13 S 1014,6 7 0 0,3
29.09.2020 18:00:00 14,0 13,2 13,8 17 9 29 15 SSW 1014,4 2,8 0 0,0
29.09.2020 17:00:00 14,1 13,0 13,7 20 11 34 18 SSW 1014,2 7 0 0,6
29.09.2020 16:00:00 14,9 12,2 15,2 20 11 30 16 S 1014,0 20 0 0,0
29.09.2020 15:00:00 14,9 10,9 15,5 20 11 29 15 S 1014,3 25 1 0,0
29.09.2020 14:00:00 15,0 10,8 16,5 21 12 33 18 S 1014,4 26 9 0,0
29.09.2020 13:00:00 14,7 10,3 16,3 22 12 32 17 S 1014,1 26 12 0,0
29.09.2020 12:00:00 14,6 9,7 15,4 24 13 35 19 S 1014,3 33 1 0,0
29.09.2020 11:00:00 14,2 10,5 14,2 20 11 31 17 S 1014,1 25 0 0,0
29.09.2020 10:00:00 14,0 10,5 13,7 19 11 29 16 S 1013,8 22 0 0,0
29.09.2020 09:00:00 13,5 11,4 12,8 16 9 25 14 S 1013,4 17 0 0,0
29.09.2020 08:00:00 12,9 11,7 12,5 18 10 26 14 S 1013,0 6 0 0,0
29.09.2020 07:00:00 13,1 11,7 12,8 17 9 30 16 SSW 1012,5 10 0 0,0
29.09.2020 06:00:00 13,6 11,9 13,3 18 10 26 14 SSW 1012,2 9 0 0,0
29.09.2020 05:00:00 13,5 11,9 13,0 16 9 29 16 S 1012,0 7 0 0,0
29.09.2020 04:00:00 13,9 11,8 13,6 17 9 26 14 SSW 1012,0 13 0 0,0
29.09.2020 03:00:00 14,1 11,7 13,8 16 9 22 12 S 1012,0 18 0 0,0
29.09.2020 02:00:00 14,1 12,0 13,3 15 8 23 13 SSW 1011,8 15 0 0,0
29.09.2020 01:00:00 14,0 12,2 13,6 15 8 23 12 SSW 1011,8 11 0 0,0
29.09.2020 00:00:00 14,0 12,2 13,8 15 8 25 13 S 1011,8 10 0 0,0
28.09.2020 23:00:00 14,0 11,9 13,8 14 8 22 12 S 1011,6 13 0 0,0
28.09.2020 22:00:00 14,2 12,0 13,9 11 6 19 10 S 1011,3 16 0 0,0
28.09.2020 21:00:00 14,3 12,4 14,0 12 6 17 9 S 1010,9 15 0 0,0
28.09.2020 20:00:00 14,0 12,3 13,9 12 6 18 10 S 1010,4 13 0 0,0
28.09.2020 19:00:00 14,4 12,8 14,2 12 7 16 9 SSE 1009,9 15 0 0,0
28.09.2020 18:00:00 14,4 12,8 14,4 10 5 19 11 SSE 1009,4 14 0 0,0
28.09.2020 17:00:00 14,7 13,0 15,3 8 5 13 7 SSE 1009,1 12 0 0,0
28.09.2020 16:00:00 14,5 12,9 15,0 11 6 16 9 S 1008,5 12 0 0,0
28.09.2020 15:00:00 14,4 13,0 15,0 10 5 16 9 SSE 1008,6 13 0 0,0
28.09.2020 14:00:00 14,7 13,5 15,4 11 6 16 9 S 1008,4 16 0 0,7
28.09.2020 13:00:00 15,3 14,3 15,3 10 5 17 9 S 1008,4 29 0 0,0
28.09.2020 12:00:00 15,4 14,9 15,5 12 6 19 10 SE 1008,0 12 0 0,0
28.09.2020 11:00:00 16,1 15,1 15,9 18 10 25 14 ENE 1007,9 4,3 0 0,0
28.09.2020 10:00:00 16,2 15,1 16,5 14 8 21 11 ENE 1007,6 13 0 0,0
28.09.2020 09:00:00 16,1 14,9 15,9 16 9 27 14 E 1007,5 14 0 0,0
28.09.2020 08:00:00 16,2 14,8 15,6 21 11 29 16 E 1007,0 16 0 0,0
28.09.2020 07:00:00 16,4 14,8 15,7 21 11 30 16 E 1006,6 16 0 0,0
28.09.2020 06:00:00 16,6 14,9 15,5 23 12 34 19 ENE 1006,5 20 0 0,0
28.09.2020 05:00:00 16,5 15,2 15,8 23 12 32 17 ENE 1006,4 15 0 0,0
28.09.2020 04:00:00 16,5 15,4 15,8 25 13 31 17 NE 1006,7 13 0 0,0
28.09.2020 03:00:00 16,6 15,5 16,0 23 12 29 16 NE 1006,8 12 0 0,0
28.09.2020 02:00:00 16,8 15,3 16,0 23 12 35 19 ENE 1006,6 17 0 0,0
28.09.2020 01:00:00 16,9 15,6 16,2 26 14 34 18 NE 1006,6 14 0 0,0
28.09.2020 00:00:00 17,0 16,0 16,0 19 10 24 13 NE 1006,4 13 0 0,0
27.09.2020 23:00:00 17,0 16,0 16,2 13 7 21 11 NE 1006,6 13 0 0,0
27.09.2020 22:00:00 17,2 16,2 16,4 16 9 22 12 ENE 1006,4 13 0 0,0
27.09.2020 21:00:00 16,2 15,8 15,7 6 3 10 6 N 1006,1 13 0 0,0
27.09.2020 20:00:00 15,3 15,0 15,1 10 5 17 9 WSW 1005,9 12 0 0,5
27.09.2020 19:00:00 14,7 14,3 14,5 14 7 19 10 SW 1005,7 27 0 0,4
27.09.2020 18:00:00 15,1 14,4 14,9 3 1 10 5 WNW 1005,3 8 0 0,0
27.09.2020 17:00:00 14,6 13,6 14,7 9 5 16 8 NW 1005,1 18 0 0,0
27.09.2020 16:00:00 14,1 13,1 14,8 11 6 15 8 NNW 1004,8 34 0 0,0
27.09.2020 15:00:00 13,7 11,9 14,7 4 2 8 5 N 1004,8 45 0 0,0
27.09.2020 14:00:00 13,2 12,1 14,2 3 2 10 5 S 1004,6 14 0 0,0
27.09.2020 13:00:00 13,2 12,4 13,7 6 3 15 8 ESE 1004,6 6 0 0,4
27.09.2020 12:00:00 13,4 12,1 13,1 11 6 21 11 ESE 1004,3 10 0 0,5
27.09.2020 11:00:00 14,5 11,3 14,6 11 6 21 12 E 1003,6 72 0 0,0
27.09.2020 10:00:00 14,7 11,4 15,5 18 10 29 16 E 1003,2 57 0 0,0
27.09.2020 09:00:00 14,5 11,7 14,4 22 12 32 17 E 1002,5 58 0 0,0
27.09.2020 08:00:00 14,8 12,0 14,2 25 14 48 26 E 1001,5 60 0 0,0
27.09.2020 07:00:00 15,0 12,4 14,7 38 21 49 26 E 1000,5 37 0 0,0
27.09.2020 06:00:00 15,7 13,7 15,3 36 19 55 30 E 999,4 28 0 0,0
27.09.2020 05:00:00 16,7 15,5 15,7 42 23 55 30 NE 998,6 11 0 0,0
27.09.2020 04:00:00 16,6 15,3 15,6 44 24 65 35 NE 998,0 11 0 0,0
27.09.2020 03:00:00 16,6 15,3 15,9 49 26 65 35 NE 997,3 13 0 0,0
27.09.2020 02:00:00 16,2 15,0 15,7 48 26 67 36 NE 996,8 15 0 0,0
27.09.2020 01:00:00 15,6 14,1 15,0 49 26 70 38 NE 996,2 16 0 0,0
27.09.2020 00:00:00 15,4 13,7 14,5 53 28 75 40 NNE 996,2 15 0 0,0
26.09.2020 23:00:00 14,9 13,3 14,0 46 25 61 33 NNE 996,4 27 0 1,7
26.09.2020 22:00:00 14,4 12,5 13,3 41 22 55 30 NNE 997,2 21 0 1,2
26.09.2020 21:00:00 14,0 12,2 13,3 39 21 49 26 NNE 997,7 7 0 0,2
26.09.2020 20:00:00 14,9 11,1 14,5 37 20 50 27 NNE 998,3 50 0 0,0
26.09.2020 19:00:00 14,7 11,2 14,4 36 19 45 25 N 998,3 49 0 0,0
26.09.2020 18:00:00 14,7 10,7 14,5 36 19 45 24 N 998,6 44 0 0,0
26.09.2020 17:00:00 14,8 11,0 14,9 32 17 40 21 N 999,0 41 0 0,0
26.09.2020 16:00:00 14,8 11,8 15,2 30 16 40 22 NNE 999,0 45 0 0,0
26.09.2020 15:00:00 15,8 9,7 16,7 13 7 18 10 NNW 998,9 62 2 0,0
26.09.2020 14:00:00 15,6 8,5 16,3 10 5 14 8 NNW 999,0 52 3 0,0
26.09.2020 13:00:00 15,6 8,0 17,3 8 4 14 8 NNW 999,1 66 1 0,0
26.09.2020 12:00:00 15,3 7,0 16,6 9 5 13 7 NW 998,9 51 37 0,0
26.09.2020 11:00:00 15,4 7,3 18,0 5 3 8 5 NW 998,4 49 32 0,0
26.09.2020 10:00:00 15,3 7,9 16,9 2 1 5 3 W 997,8 50 8 0,0
26.09.2020 09:00:00 13,4 7,5 11,4 0 0 3 2 N 997,4 51 0 0,0
26.09.2020 08:00:00 12,7 7,4 9,5 2 1 3 2 WSW 996,8 56 0 0,0
26.09.2020 07:00:00 13,0 6,8 8,1 2 1 3 1 WSW 997,0 51 0 0,0
26.09.2020 06:00:00 12,4 6,7 7,7 0 0 2 1 N 996,4 52 0 0,0
26.09.2020 05:00:00 12,6 6,6 9,5 2 1 5 3 WSW 996,6 51 0 0,0
26.09.2020 04:00:00 12,7 7,2 9,6 0 0 4 2 N 996,2 54 0 0,0
26.09.2020 03:00:00 13,7 6,2 11,1 0 0 3 2 N 996,3 60 0 0,0
26.09.2020 02:00:00 13,7 6,9 11,8 4 2 9 5 SSW 996,1 58 0 0,0
26.09.2020 01:00:00 13,7 6,4 11,5 5 3 13 7 SSE 996,1 49 0 0,0
26.09.2020 00:00:00 13,9 6,7 11,7 8 5 15 8 S 996,1 65 0 0,0
25.09.2020 23:00:00 14,0 6,5 12,6 8 4 21 11 S 996,3 51 0 0,0
25.09.2020 22:00:00 14,0 6,7 12,3 8 4 18 10 S 996,3 56 0 0,0
25.09.2020 21:00:00 13,6 5,8 11,2 9 5 19 10 S 996,3 60 0 0,0
25.09.2020 20:00:00 13,6 5,6 11,2 11 6 22 12 S 996,1 51 0 0,0
25.09.2020 19:00:00 13,6 5,6 11,6 19 10 30 16 SSW 995,9 45 24 0,0
25.09.2020 18:00:00 13,9 6,3 12,8 21 11 36 19 SSW 995,7 44 12 0,0
25.09.2020 17:00:00 14,2 5,8 14,0 19 10 31 17 S 995,7 46 25 0,0
25.09.2020 16:00:00 14,1 7,0 15,0 15 8 29 16 S 995,3 43 38 0,0
25.09.2020 15:00:00 14,6 7,8 17,7 23 12 32 17 SSW 995,6 51 48 0,0
25.09.2020 14:00:00 14,1 7,9 17,2 21 11 33 18 SSW 995,4 41 49 0,0
25.09.2020 13:00:00 13,8 8,8 16,0 21 11 34 18 SSW 995,2 61 46 0,0
25.09.2020 12:00:00 13,6 8,8 14,7 23 12 41 22 SSW 994,9 35 0 0,0
25.09.2020 11:00:00 13,8 9,0 12,6 32 18 45 24 SSW 994,9 45 0 0,0
25.09.2020 10:00:00 13,7 10,0 12,6 32 18 46 25 SSW 994,4 45 0 0,1
25.09.2020 09:00:00 13,2 11,2 12,3 22 12 39 21 SSW 993,8 11 0 0,5
25.09.2020 08:00:00 13,2 11,5 12,3 31 17 44 24 SW 994,0 12 0 0,2
25.09.2020 07:00:00 14,4 10,8 13,9 26 14 39 21 SSW 993,4 33 0 0,0
25.09.2020 06:00:00 15,3 10,9 14,7 29 16 49 26 SE 993,7 39 0 0,0
25.09.2020 05:00:00 15,6 11,6 14,8 34 18 42 23 ESE 994,0 39 0 0,0
25.09.2020 04:00:00 15,8 12,0 14,7 32 17 40 21 ESE 994,9 39 0 0,0
25.09.2020 03:00:00 15,7 10,5 14,7 32 17 41 22 SE 996,1 47 0 0,0
25.09.2020 02:00:00 16,2 10,9 14,7 30 16 39 21 SE 996,9 49 0 0,0
25.09.2020 01:00:00 16,1 11,2 15,0 20 11 32 17 SSE 997,9 44 0 0,0
25.09.2020 00:00:00 16,4 10,6 15,4 22 12 29 16 SE 998,3 43 0 0,0

tt = temperature
td = dewpoint
tt 5cm = temperature 5cm
ff = wind speed
fx = gusts
dd = wind direction
ppp = reduced air pressure
vv = visibility
sd = sunshine duration
rr = precipitation

Next stations